• En España
  • Lista de países
  • Para 7 días
  • Temperatura del agua
  • Mapa Satelital
  • El tiempo en el mapa
  • Informadores
  • user-avatar
    Iniciar sesión

    Tiempo cada hora Aldiyarovo

    Hoy, 23 Octubre, Martes

    Tiempo Temperatura Precipitaciones Viento Presión Humedad
    00:00 +1°C° 0 mm 6 mps 742 mmHg 84%
    01:00 +1°C° 0 mm 5 mps 741 mmHg 87%
    02:00 +1°C° 0 mm 5 mps 741 mmHg 89%
    03:00 +1°C° 0 mm 5 mps 740 mmHg 92%
    04:00 +1°C° 0 mm 5 mps 739 mmHg 92%
    05:00 +2°C° 0 mm 5 mps 739 mmHg 93%
    06:00 +2°C° 0 mm 5 mps 739 mmHg 94%
    07:00 +3°C° 0 mm 6 mps 738 mmHg 93%
    08:00 +4°C° 0 mm 6 mps 738 mmHg 92%
    09:00 +5°C° 0 mm 6 mps 737 mmHg 91%
    10:00 +5°C° 0.4 mm 6 mps 737 mmHg 90%
    11:00 +5°C° 0.4 mm 7 mps 736 mmHg 89%
    12:00 +5°C° 0.4 mm 7 mps 736 mmHg 89%
    13:00 +6°C° 0.8 mm 7 mps 735 mmHg 88%
    14:00 +6°C° 0.8 mm 7 mps 734 mmHg 88%
    15:00 +6°C° 0.8 mm 7 mps 734 mmHg 88%
    16:00 +5°C° 0.7 mm 7 mps 733 mmHg 88%
    17:00 +5°C° 0.7 mm 7 mps 733 mmHg 88%
    18:00 +5°C° 0.7 mm 7 mps 733 mmHg 88%
    19:00 +5°C° 0.6 mm 6 mps 732 mmHg 89%
    20:00 +5°C° 0.6 mm 6 mps 732 mmHg 90%
    21:00 +6°C° 0.6 mm 5 mps 731 mmHg 91%
    22:00 +5°C° 0.1 mm 5 mps 731 mmHg 91%
    23:00 +5°C° 0.1 mm 4 mps 731 mmHg 92%

    Mañana, 24 Octubre, Miércoles

    Tiempo Temperatura Precipitaciones Viento Presión Humedad
    00:00 +4°C° 0.1 mm 3 mps 731 mmHg 92%
    01:00 +4°C° 0 mm 3 mps 731 mmHg 93%
    02:00 +3°C° 0 mm 3 mps 731 mmHg 94%
    03:00 +2°C° 0 mm 3 mps 731 mmHg 94%
    04:00 +2°C° 0 mm 3 mps 731 mmHg 94%
    05:00 +2°C° 0 mm 3 mps 730 mmHg 94%
    06:00 +1°C° 0 mm 3 mps 730 mmHg 94%
    07:00 +1°C° 0 mm 4 mps 730 mmHg 90%
    08:00 +3°C° 0 mm 4 mps 730 mmHg 87%
    09:00 +3°C° 0 mm 5 mps 730 mmHg 83%
    10:00 +5°C° 0 mm 5 mps 730 mmHg 78%
    11:00 +6°C° 0 mm 5 mps 730 mmHg 73%
    12:00 +7°C° 0 mm 6 mps 730 mmHg 68%
    13:00 +7°C° 0 mm 5 mps 730 mmHg 69%
    14:00 +7°C° 0 mm 5 mps 730 mmHg 70%
    15:00 +6°C° 0 mm 4 mps 730 mmHg 71%
    16:00 +6°C° 0 mm 4 mps 730 mmHg 73%
    17:00 +5°C° 0 mm 4 mps 730 mmHg 76%
    18:00 +5°C° 0 mm 4 mps 730 mmHg 78%
    19:00 +5°C° 0 mm 4 mps 729 mmHg 78%
    20:00 +5°C° 0 mm 5 mps 729 mmHg 78%
    21:00 +5°C° 0 mm 5 mps 729 mmHg 78%
    22:00 +5°C° 0 mm 5 mps 729 mmHg 79%
    23:00 +5°C° 0 mm 5 mps 728 mmHg 80%

    Pasado mañana, 25 Octubre, Jueves

    Tiempo Temperatura Precipitaciones Viento Presión Humedad
    00:00 +5°C° 0 mm 5 mps 728 mmHg 81%
    01:00 +5°C° 0.9 mm 5 mps 728 mmHg 83%
    02:00 +4°C° 0.9 mm 6 mps 728 mmHg 85%
    03:00 +5°C° 0.9 mm 6 mps 727 mmHg 86%
    04:00 +5°C° 0.4 mm 6 mps 727 mmHg 87%
    05:00 +5°C° 0.4 mm 6 mps 727 mmHg 89%
    06:00 +5°C° 0.4 mm 6 mps 727 mmHg 90%
    07:00 +7°C° 0.3 mm 6 mps 727 mmHg 90%
    08:00 +7°C° 0.3 mm 6 mps 726 mmHg 89%
    09:00 +7°C° 0.3 mm 6 mps 726 mmHg 89%
    10:00 +8°C° 0.9 mm 6 mps 725 mmHg 89%
    11:00 +8°C° 0.9 mm 6 mps 725 mmHg 89%
    12:00 +8°C° 0.9 mm 7 mps 724 mmHg 89%
    13:00 +8°C° 0.2 mm 7 mps 724 mmHg 88%
    14:00 +9°C° 0.2 mm 7 mps 724 mmHg 87%
    15:00 +9°C° 0.2 mm 8 mps 723 mmHg 86%
    16:00 +9°C° 0.2 mm 8 mps 723 mmHg 86%
    17:00 +9°C° 0.2 mm 8 mps 723 mmHg 86%
    18:00 +9°C° 0.2 mm 8 mps 723 mmHg 86%
    19:00 +8°C° 0.5 mm 7 mps 723 mmHg 86%
    20:00 +8°C° 0.5 mm 7 mps 723 mmHg 85%
    21:00 +8°C° 0.5 mm 6 mps 723 mmHg 85%
    22:00 +7°C° 0.2 mm 5 mps 723 mmHg 84%
    23:00 +6°C° 0.2 mm 5 mps 723 mmHg 84%

    26 Octubre, Viernes

    Tiempo Temperatura Precipitaciones Viento Presión Humedad
    00:00 +5°C° 0.2 mm 4 mps 723 mmHg 83%
    01:00 +5°C° 0 mm 4 mps 723 mmHg 84%
    02:00 +5°C° 0 mm 4 mps 723 mmHg 84%
    03:00 +4°C° 0 mm 4 mps 724 mmHg 85%
    04:00 +4°C° 0 mm 4 mps 724 mmHg 85%
    05:00 +3°C° 0 mm 4 mps 724 mmHg 85%
    06:00 +2°C° 0 mm 5 mps 724 mmHg 84%
    07:00 +2°C° 0 mm 5 mps 724 mmHg 83%
    08:00 +2°C° 0 mm 5 mps 725 mmHg 82%
    09:00 +2°C° 0 mm 6 mps 725 mmHg 81%
    10:00 +2°C° 0 mm 6 mps 725 mmHg 79%
    11:00 +2°C° 0 mm 6 mps 726 mmHg 77%
    12:00 +3°C° 0 mm 6 mps 726 mmHg 75%
    13:00 +3°C° 0.1 mm 6 mps 727 mmHg 75%
    14:00 +2°C° 0.1 mm 5 mps 727 mmHg 74%
    15:00 +2°C° 0.1 mm 5 mps 727 mmHg 74%
    16:00 +2°C° 0 mm 5 mps 728 mmHg 73%
    17:00 +1°C° 0 mm 5 mps 728 mmHg 72%
    18:00 +1°C° 0 mm 5 mps 728 mmHg 72%
    19:00 +1°C° 0 mm 5 mps 729 mmHg 74%
    20:00 0°C° 0 mm 5 mps 729 mmHg 77%
    21:00 0°C° 0 mm 5 mps 729 mmHg 79%
    22:00 -1°C° 0 mm 4 mps 730 mmHg 81%
    23:00 -1°C° 0 mm 4 mps 730 mmHg 83%

    27 Octubre, Sábado

    Tiempo Temperatura Precipitaciones Viento Presión Humedad
    00:00 -2°C° 0 mm 4 mps 730 mmHg 85%
    01:00 -2°C° 0 mm 4 mps 730 mmHg 85%
    02:00 -2°C° 0 mm 4 mps 731 mmHg 85%
    03:00 -2°C° 0 mm 5 mps 731 mmHg 84%
    04:00 -2°C° 0 mm 5 mps 731 mmHg 85%
    05:00 -2°C° 0 mm 5 mps 731 mmHg 86%
    06:00 -2°C° 0 mm 5 mps 731 mmHg 87%
    07:00 -2°C° 0 mm 5 mps 732 mmHg 85%
    08:00 -2°C° 0 mm 6 mps 732 mmHg 83%
    09:00 -2°C° 0 mm 6 mps 732 mmHg 80%
    10:00 -1°C° 0 mm 6 mps 733 mmHg 77%
    11:00 +1°C° 0 mm 6 mps 733 mmHg 74%
    12:00 +2°C° 0 mm 6 mps 733 mmHg 71%
    13:00 +1°C° 0 mm 6 mps 734 mmHg 72%
    14:00 +1°C° 0 mm 6 mps 734 mmHg 72%
    15:00 -1°C° 0 mm 6 mps 735 mmHg 73%
    16:00 -1°C° 0 mm 6 mps 735 mmHg 74%
    17:00 0°C° 0 mm 5 mps 736 mmHg 74%
    18:00 -1°C° 0 mm 5 mps 736 mmHg 74%
    19:00 -1°C° 0 mm 5 mps 736 mmHg 77%
    20:00 -2°C° 0 mm 4 mps 736 mmHg 79%
    21:00 -2°C° 0 mm 4 mps 736 mmHg 81%
    22:00 -2°C° 0 mm 5 mps 736 mmHg 82%
    23:00 -2°C° 0 mm 5 mps 736 mmHg 83%

    28 Octubre, Domingo

    Tiempo Temperatura Precipitaciones Viento Presión Humedad
    00:00 -2°C° 0 mm 5 mps 735 mmHg 85%
    01:00 -2°C° 0.1 mm 6 mps 735 mmHg 83%
    02:00 -2°C° 0.1 mm 6 mps 734 mmHg 82%
    03:00 -1°C° 0.1 mm 7 mps 733 mmHg 80%
    04:00 -1°C° 0.8 mm 7 mps 732 mmHg 82%
    05:00 -1°C° 0.8 mm 7 mps 731 mmHg 84%
    06:00 0°C° 0.8 mm 7 mps 730 mmHg 86%
    07:00 0°C° 0.3 mm 7 mps 730 mmHg 87%
    08:00 +2°C° 0.3 mm 7 mps 730 mmHg 87%
    09:00 +3°C° 0.3 mm 6 mps 730 mmHg 88%
    10:00 +3°C° 0.1 mm 6 mps 730 mmHg 86%
    11:00 +3°C° 0.1 mm 6 mps 730 mmHg 84%
    12:00 +4°C° 0.1 mm 6 mps 731 mmHg 82%
    13:00 +3°C° 0.2 mm 6 mps 731 mmHg 80%
    14:00 +3°C° 0.2 mm 7 mps 731 mmHg 78%
    15:00 +3°C° 0.2 mm 7 mps 732 mmHg 75%
    16:00 +3°C° 0.1 mm 7 mps 732 mmHg 76%
    17:00 +2°C° 0.1 mm 7 mps 733 mmHg 78%
    18:00 +2°C° 0.1 mm 7 mps 734 mmHg 79%
    19:00 0°C° 0 mm 7 mps 735 mmHg 79%
    20:00 0°C° 0 mm 8 mps 736 mmHg 80%
    21:00 0°C° 0 mm 8 mps 736 mmHg 80%
    22:00 -1°C° 0 mm 7 mps 738 mmHg 81%
    23:00 -1°C° 0 mm 7 mps 739 mmHg 81%

    29 Octubre, Lunes

    Tiempo Temperatura Precipitaciones Viento Presión Humedad
    00:00 -1°C° 0 mm 7 mps 740 mmHg 81%
    01:00 -2°C° 0 mm 6 mps 741 mmHg 82%
    02:00 -2°C° 0 mm 6 mps 742 mmHg 82%
    03:00 -1°C° 0 mm 5 mps 743 mmHg 83%
    04:00 -2°C° 0 mm 5 mps 743 mmHg 84%
    05:00 -2°C° 0 mm 4 mps 744 mmHg 86%
    06:00 -3°C° 0 mm 4 mps 745 mmHg 87%
    07:00 -2°C° 0 mm 4 mps 745 mmHg 85%
    08:00 -2°C° 0 mm 4 mps 746 mmHg 83%
    09:00 -2°C° 0 mm 4 mps 747 mmHg 81%
    10:00 -1°C° 0 mm 4 mps 747 mmHg 77%
    11:00 0°C° 0 mm 3 mps 748 mmHg 73%
    12:00 +1°C° 0 mm 3 mps 749 mmHg 69%
    13:00 +1°C° 0 mm 3 mps 749 mmHg 70%
    14:00 +2°C° 0 mm 2 mps 750 mmHg 71%
    15:00 +2°C° 0 mm 2 mps 750 mmHg 72%
    16:00 +1°C° 0 mm 2 mps 750 mmHg 75%
    17:00 +2°C° 0 mm 1 mps 750 mmHg 77%
    18:00 +2°C° 0 mm 1 mps 751 mmHg 80%
    19:00 +2°C° 0 mm 1 mps 751 mmHg 81%
    20:00 +2°C° 0 mm 1 mps 751 mmHg 81%
    21:00 +2°C° 0 mm 1 mps 751 mmHg 82%
    22:00 +1°C° 0 mm 1 mps 751 mmHg 83%
    23:00 +1°C° 0 mm 1 mps 752 mmHg 84%
    Mostrar más